Location: Chassagnes
(44.4047°N, 4.1657°E)
Time: 12:02:59
(UTC+00:00)

Cosmos 1455 - Pass Details

Date: 27 October 2020
Orbit: 500 x 521 km, 82.5° (Epoch: 23 November)

Event Time Altitude Azimuth Distance (km) Brightness Sun altitude
Rises 18:24:15 0° 183° (S) 2,592 5.8 -19.3°
Reaches altitude 10° 18:26:21 10° 181° (S) 1,715 4.8 -19.7°
Maximum altitude 18:30:05 74° 97° (E) 535 2.0 -20.3°
Enters shadow 18:31:10 44° 24° (NNE) 712 2.7 -20.5°
